Flag for U.S.A. Weather past 2 weeks in Paradise, Nevada, U.S.A.

Now
98 °F

Broken clouds.


Feels Like: 97 °F
Forecast: 75 / 94 °F
Wind: 6 mph from South

Location: McCarran International Airport

Current Time: Sep 16, 2014 at 5:38:44 PM

Latest Report: Sep 16, 2014 at 4:56 PM


Visibility: 10 mi

Pressure: 29.67 "Hg

Humidity: 25%

Dew point: 57 °F

Location of ParadiseLocation

Historic Weather in Paradise — Graph

°F

Paradise temperature yesterday

Maximum temperature yesterday: 103 °F (at 3:56 PM)
Minimum temperature yesterday: 79 °F (at 5:56 AM)
Average temperature yesterday: 91 °F

Past Weeks' High & Low Weather Summary

 TemperatureHumidityPressure
High105 °F (Sep 2, 3:56 PM)94% (Sep 8, 5:56 PM)29.91 "Hg (Sep 8, 5:56 PM)
Low71 °F (Sep 10, 5:56 AM)4% (Sep 3, 4:56 PM)29.54 "Hg (Sep 4, 5:56 PM)
Average88 °F26%29.74 "Hg
* Reported Sep 1 3:56 PM — Sep 16 3:56 PM, Paradise, Weather by CustomWeather, © 2014

Note: Actual official high and low records may vary slightly from our data, if they occured in-between our weather recording intervals... More about our weather records

Advertising

Paradise weather history for previous 24 hours

 ConditionsComfort  
Time TempWeatherWind HumidityBarometerVisibility
3:56 PM
Sep 16
98 °FScattered clouds.9 mph24%29.68 "Hg10 mi
2:56 PM101 °FScattered clouds.6 mph22%29.70 "Hg10 mi
1:56 PM100 °FPassing clouds.9 mph22%29.73 "Hg10 mi
12:56 PM98 °FPassing clouds.5 mph24%29.76 "Hg10 mi
11:56 AM96 °FPassing clouds.6 mph23%29.79 "Hg10 mi
10:56 AM94 °FPassing clouds.3 mph21%29.81 "Hg10 mi
9:56 AM92 °FSunny.3 mph21%29.82 "Hg10 mi
8:56 AM88 °FSunny.3 mph23%29.83 "Hg10 mi
7:56 AM84 °FPassing clouds.7 mph30%29.82 "Hg10 mi
6:56 AM81 °FPassing clouds.5 mph33%29.80 "Hg10 mi
5:56 AM81 °FPassing clouds.6 mph35%29.79 "Hg10 mi
4:56 AM81 °FPassing clouds.8 mph33%29.78 "Hg10 mi
3:56 AM82 °FClear.6 mph33%29.76 "Hg10 mi
2:56 AM84 °FClear.7 mph29%29.76 "Hg10 mi
1:56 AM86 °FClear.8 mph27%29.76 "Hg10 mi
12:56 AM87 °FClear.9 mph24%29.76 "Hg10 mi
11:56 PM
Sep 15
88 °FClear.9 mph24%29.76 "Hg10 mi
10:56 PM89 °FClear.3 mph22%29.77 "Hg10 mi
9:56 PM92 °FPassing clouds.10 mph20%29.76 "Hg10 mi
8:56 PM94 °FPassing clouds.12 mph17%29.75 "Hg10 mi
7:56 PM97 °FPassing clouds.7 mph15%29.73 "Hg10 mi
6:56 PM99 °FPassing clouds.No wind12%29.72 "Hg10 mi
5:56 PM101 °FPassing clouds.5 mph13%29.72 "Hg10 mi
Weather by CustomWeather, © 2014

See weather overviewHow to use our weather pages